Starlink 11550

operational
NORAD ID: 63052 Int'l Des: 2025-035 Owner: SPXS Country: US Constellation: starlink
LEOCIRCULAR

About Starlink 11550

Description loading...

Live Position

Loading 3D Globe...

Upcoming Passes

Altitude History

Altitude vs Time

uPlot chart will show altitude changes over time

Two-Line Element Set

1 63052U 25035A 25257.43960758 .00217602 00000-0 16501-2 0 9997
2 63052 43.0000 357.5134 0001904 262.7869 97.2782 15.70914465 33505
Epoch: Sep 14, 2025 • Age: 30 hours

Current Status

Altitude 354.4 km
Velocity 7.70 km/s
Sub-Earth Point 15.97°N, 85.59°W
Launch Date Feb 21, 2025
Age 0.5 years
Type internet

Technical Details

Classification Payload
Mass 960.00 kg
Dry Mass 910.00 kg
Total Mass 960.00 kg
Length 0.30 m
Diameter 4.10 m
Span 29.00 m
Shape Box + pan
Manufacturer SPXS
Bus Type Starlink V2MD
Phase Status In Orbit
Owner/State SPXS/US

Large Constellations

Loading constellations...